This is the latest recevied weather packets stored in our database for station/object WI0K. If no packets are shown the sender has not sent any weather packets the latest 10 day(s).
| Time | Temp. | Humidity | Pressure | Rain* | Wind** | Luminosity | Snow |
|---|---|---|---|---|---|---|---|
| 1778112156 | 3.33° C | 68% | 1018.6 hPa | 0 mm | - | 56 W/m² | - |
| 1778112102 | 3.89° C | 67% | 1018.6 hPa | 0 mm | - | 58 W/m² | - |
| 1778111855 | 3.89° C | 67% | 1018.6 hPa | 0 mm | - | 58 W/m² | - |
| 1778111797 | 3.89° C | 68% | 1018.6 hPa | 0 mm | - | 59 W/m² | - |
| 1778111555 | 3.89° C | 68% | 1018.6 hPa | 0 mm | - | 59 W/m² | - |
| 1778111501 | 3.33° C | 69% | 1018.6 hPa | 0 mm | - | 60 W/m² | - |
| 1778111254 | 3.33° C | 69% | 1018.6 hPa | 0 mm | - | 60 W/m² | - |
| 1778111201 | 3.33° C | 68% | 1018.5 hPa | 0 mm | - | 62 W/m² | - |
| 1778110953 | 3.33° C | 68% | 1018.5 hPa | 0 mm | - | 62 W/m² | - |
| 1778110900 | 3.33° C | 71% | 1018.6 hPa | 0 mm | - | 175 W/m² | - |
| 1778110652 | 3.33° C | 71% | 1018.6 hPa | 0 mm | - | 175 W/m² | - |
| 1778110351 | 3.33° C | 69% | 1018.6 hPa | 0 mm | - | 81 W/m² | - |
| 1778110051 | 3.33° C | 66% | 1018.6 hPa | 0 mm | - | 206 W/m² | - |
| 1778109750 | 3.33° C | 68% | 1018.6 hPa | 0 mm | - | 323 W/m² | - |
| 1778109450 | 3.33° C | 68% | 1018.6 hPa | 0 mm | - | 144 W/m² | - |
| 1778109149 | 3.33° C | 66% | 1018.8 hPa | 0 mm | - | 480 W/m² | - |
| 1778108848 | 3.33° C | 70% | 1018.8 hPa | 0 mm | - | 542 W/m² | - |
| 1778108548 | 3.33° C | 67% | 1018.8 hPa | 0 mm | - | 330 W/m² | - |
| 1778108247 | 3.33° C | 67% | 1018.8 hPa | 0 mm | - | 324 W/m² | - |
| 1778107947 | 3.33° C | 67% | 1018.8 hPa | 0 mm | - | 143 W/m² | - |
| 1778107646 | 3.33° C | 69% | 1018.9 hPa | 0 mm | - | 390 W/m² | - |
| 1778107345 | 3.33° C | 69% | 1018.9 hPa | 0 mm | - | 546 W/m² | - |
| 1778107295 | 3.33° C | 68% | 1018.9 hPa | 0 mm | - | 403 W/m² | - |
| 1778107045 | 3.33° C | 68% | 1018.9 hPa | 0 mm | - | 403 W/m² | - |
| 1778106744 | 3.33° C | 69% | 1019 hPa | 0 mm | - | 462 W/m² | - |
* Rain latest hour (hover to see other rain measurements)
** Current wind speed in m/s (hover to see current wind gust speed)